Date,TemperatureHighF,TemperatureAvgF,TemperatureLowF,DewpointHighF,DewpointAvgF,DewpointLowF,HumidityHigh,HumidityAvg,HumidityLow,PressureMaxIn,PressureMinIn,WindSpeedMaxMPH,WindSpeedAvgMPH,GustSpeedMaxMPH,PrecipitationSumIn
2013-1-1,19.2,3.9,-13.2,10.8,-8.1,-26.1,69,56,43,30.01,29.74,7,2,8,0.00
2013-1-2,21.2,18.2,14.9,14.5,10.3,7.9,77,70,65,29.78,29.64,14,3,14,0.00
2013-1-3,19.2,13.0,7.7,9.4,1.8,-5.0,69,60,44,29.99,29.77,17,6,17,0.00
2013-1-4,35.6,20.4,12.7,12.6,7.5,4.3,71,58,36,29.81,29.73,11,2,11,0.00
2013-1-5,31.1,16.4,8.4,12.8,4.9,-1.1,72,61,37,29.80,29.55,10,3,11,0.00
2013-1-6,22.5,18.3,9.5,8.0,4.9,-4.5,71,56,49,29.94,29.70,10,4,11,0.00
2013-1-7,41.4,28.5,22.5,22.7,15.3,6.7,72,58,45,29.70,29.59,8,3,9,0.02
2013-1-8,38.1,26.9,15.1,25.5,18.2,8.1,79,69,53,29.67,29.42,12,3,12,0.01
2013-1-9,36.0,29.6,22.5,24.0,17.5,12.6,75,61,43,30.03,29.58,22,6,26,0.01
2013-1-10,45.1,34.0,26.2,30.5,20.7,13.5,88,60,29,29.97,29.41,13,5,99,0.18
2013-1-11,39.9,36.4,33.6,38.3,33.7,30.4,94,90,87,29.42,29.02,8,4,11,0.02
2013-1-12,36.3,14.1,1.9,33.4,1.5,-10.7,90,57,42,29.80,29.03,8,0,11,0.01
2013-1-13,7.3,2.9,-1.1,-7.3,-10.5,-14.7,60,52,48,29.96,29.78,0,0,0,0.00
2013-1-14,14.0,6.3,0.3,-3.2,-7.2,-10.7,64,53,40,30.12,29.95,0,0,0,0.00
2013-1-15,30.2,18.9,5.5,11.0,4.5,-3.9,70,54,35,29.99,29.51,12,3,12,0.00
2013-1-16,35.6,25.4,9.9,28.7,10.1,-16.0,83,54,24,29.95,29.35,15,6,17,0.00
2013-1-17,19.6,11.2,3.4,3.9,-7.8,-20.1,60,42,26,30.13,29.95,12,3,14,0.00
2013-1-18,43.7,28.0,15.3,28.1,17.5,3.7,80,65,49,29.99,29.42,11,4,13,0.00
2013-1-19,38.8,21.5,0.0,28.1,10.4,-17.8,85,63,39,29.97,29.37,29,8,31,0.01
2013-1-20,6.8,0.6,-4.2,-10.0,-17.3,-23.2,51,42,31,30.12,29.97,18,8,18,0.00
2013-1-21,-3.6,-7.8,-12.8,-21.0,-28.5,-32.6,44,34,27,30.07,29.98,16,8,19,0.00
2013-1-22,3.0,-2.8,-6.5,-12.7,-24.8,-32.6,47,33,20,30.11,29.96,7,4,11,0.00
2013-1-23,15.6,5.2,-7.4,1.1,-14.3,-32.8,97,41,21,30.35,29.85,23,6,24,0.00
2013-1-24,12.0,0.1,-8.9,-6.1,-21.6,-35.6,43,34,23,30.40,29.87,12,5,17,0.00
2013-1-25,17.4,11.9,1.4,3.4,-4.8,-13.6,56,46,39,30.05,29.65,21,8,24,0.00
2013-1-26,23.2,10.6,-4.2,6.0,-6.1,-17.2,57,46,32,30.07,29.83,11,4,12,0.00
2013-1-27,32.9,25.9,21.6,19.0,10.4,6.0,56,51,49,29.83,29.63,9,4,11,0.00
2013-1-28,33.1,31.4,30.7,29.1,28.2,27.6,89,88,85,29.50,29.33,10,5,11,0.20
2013-1-29,37.4,31.6,26.1,29.9,24.9,15.2,89,77,62,29.45,29.24,16,4,16,0.01
2013-1-30,26.1,16.0,5.9,15.2,3.2,-8.6,67,56,49,29.49,29.38,21,10,21,0.00
2013-1-31,5.9,-0.3,-9.8,-7.2,-17.0,-29.4,55,44,35,29.98,29.49,19,11,23,0.00
2013-2-1,4.6,-4.6,-17.3,-11.2,-23.9,-34.1,55,39,18,30.01,29.76,10,3,11,0.00
2013-2-2,14.2,5.5,-1.1,-2.5,-10.6,-19.3,61,48,24,29.89,29.68,5,2,8,0.00
2013-2-3,15.1,8.9,0.5,0.1,-4.9,-12.5,62,53,41,29.79,29.68,14,5,14,0.00
2013-2-4,16.7,9.6,0.0,5.8,-8.1,-17.3,70,45,27,29.78,29.43,9,2,10,0.00
2013-2-5,31.5,20.9,4.3,19.1,8.8,-6.4,77,60,40,29.79,29.36,15,5,17,0.00
2013-2-6,25.3,14.6,1.9,15.6,5.0,-7.3,72,65,57,29.81,29.62,9,3,10,0.00
2013-2-7,28.0,24.7,22.5,18.9,16.2,14.2,81,70,58,29.97,29.71,13,4,13,0.00
2013-2-8,29.3,21.6,7.9,15.4,8.9,-2.7,70,58,39,30.10,29.89,9,4,13,0.00
2013-2-9,31.6,28.2,23.9,25.8,20.7,15.6,84,73,67,29.90,29.60,14,6,14,0.00
2013-2-10,32.0,29.1,26.6,28.7,24.2,20.3,88,82,73,29.60,29.00,13,3,14,0.00
2013-2-11,28.8,23.6,11.1,25.4,13.9,2.2,87,66,53,29.75,29.06,0,0,0,0.00
2013-2-12,39.0,23.4,9.1,19.0,11.2,-0.8,72,60,40,29.75,29.49,8,2,11,0.09
2013-2-13,43.5,29.3,18.7,28.1,19.5,10.3,86,68,42,29.50,29.24,7,2,8,0.06
2013-2-14,31.5,24.5,10.0,27.8,11.1,-9.6,87,59,22,29.89,29.28,15,4,17,0.00
2013-2-15,19.0,10.3,3.2,-3.6,-7.4,-10.3,58,45,29,30.03,29.89,14,6,15,0.00
2013-2-16,26.1,12.2,-2.0,-0.1,-6.3,-15.0,63,44,25,29.98,29.81,5,2,5,0.00
2013-2-17,32.4,21.2,4.6,18.6,7.7,-6.4,63,55,42,29.82,29.32,17,6,19,0.00
2013-2-18,32.7,22.0,7.3,26.0,10.4,-6.9,76,61,50,29.53,29.22,21,8,23,0.00
2013-2-19,7.3,3.3,-5.1,-6.8,-14.8,-21.8,53,42,31,30.09,29.53,21,10,24,0.00
2013-2-20,19.8,4.3,-11.7,-6.6,-15.6,-25.2,53,40,20,30.18,30.09,8,2,8,0.00
2013-2-21,24.1,14.3,0.7,10.5,-2.4,-12.3,65,47,32,30.19,29.80,10,5,13,0.00
2013-2-22,31.8,23.4,19.0,19.6,13.9,10.5,77,67,50,29.81,29.57,10,4,11,0.05
2013-2-23,42.3,24.3,13.3,22.7,14.1,5.6,78,65,41,29.66,29.50,8,3,10,0.02
2013-2-24,42.6,21.5,12.7,18.8,9.4,5.2,71,61,32,29.82,29.66,7,2,7,0.00
2013-2-25,44.4,25.9,14.0,20.0,13.0,6.0,72,59,32,29.84,29.70,6,1,7,0.00
2013-2-26,40.1,25.1,10.6,24.5,14.8,2.8,75,65,51,29.75,29.56,11,3,11,0.00
2013-2-27,43.5,31.9,27.0,22.4,18.8,15.4,70,59,37,29.71,29.56,17,6,19,0.00
2013-2-28,32.5,27.8,21.6,18.0,14.2,7.9,64,56,48,29.92,29.70,10,4,10,0.00
2013-3-1,33.8,24.0,13.3,13.5,9.0,2.6,62,53,38,30.05,29.91,11,4,13,0.00
2013-3-2,38.1,20.1,3.0,7.9,0.3,-9.9,66,45,15,30.07,29.85,6,2,7,0.00
2013-3-3,34.5,25.7,18.1,6.3,1.2,-5.2,56,35,18,29.86,29.64,11,5,13,0.00
2013-3-4,27.3,24.3,22.5,17.6,12.1,0.9,78,61,32,29.74,29.65,15,6,15,0.00
2013-3-5,36.7,25.6,21.0,23.4,17.6,13.5,79,72,55,30.00,29.67,8,2,9,0.02
2013-3-6,31.5,21.3,8.8,15.5,9.7,-1.5,71,61,47,30.13,30.00,8,2,11,0.04
2013-3-7,33.3,20.9,10.4,14.0,7.4,2.3,69,57,41,30.11,29.97,11,3,11,0.05
2013-3-8,43.2,30.5,17.2,25.6,17.8,9.7,72,59,42,30.02,29.74,10,4,11,0.05
2013-3-9,36.5,34.7,32.7,32.3,30.1,23.4,87,83,63,29.75,29.36,10,4,11,0.47
2013-3-10,35.4,32.4,27.9,30.3,24.0,16.9,88,71,61,29.68,29.49,16,8,18,0.00
2013-3-11,31.8,26.7,19.6,18.6,15.4,10.8,69,62,53,29.58,29.44,14,6,16,0.00
2013-3-12,30.4,23.8,18.3,14.5,8.1,-2.0,68,51,27,29.88,29.52,21,7,23,0.00
2013-3-13,36.9,21.8,8.8,11.9,5.7,-0.8,69,52,22,30.09,29.88,12,4,13,0.00
2013-3-14,48.9,31.3,22.6,25.2,17.8,10.1,79,58,38,29.90,29.66,8,3,8,0.02
2013-3-15,34.3,30.0,22.3,28.1,23.2,16.5,83,76,67,29.68,29.49,9,2,9,0.14
2013-3-16,26.6,19.3,9.1,16.5,4.5,-9.7,78,53,33,29.94,29.59,16,4,19,0.01
2013-3-17,27.7,16.3,2.1,4.5,-4.0,-11.9,51,40,27,29.99,29.55,14,6,15,0.00
2013-3-18,27.3,22.7,17.6,21.6,8.8,1.4,80,55,39,29.55,29.28,18,10,18,0.00
2013-3-19,22.6,15.4,3.4,2.2,-5.9,-17.0,52,39,21,29.90,29.54,24,9,24,0.00
2013-3-20,22.1,11.6,1.2,-6.4,-11.2,-17.8,44,35,24,29.95,29.79,19,9,25,0.00
2013-3-21,31.8,14.6,-4.7,1.1,-6.7,-17.7,57,39,19,29.86,29.70,9,3,11,0.00
2013-3-22,43.3,22.7,0.7,8.9,-0.1,-11.6,62,40,16,29.82,29.68,8,3,8,0.00
2013-3-23,43.2,29.2,24.8,14.2,8.9,1.9,58,44,19,29.87,29.71,7,3,8,0.00
2013-3-24,36.5,29.6,25.7,21.5,17.1,14.2,76,60,41,29.76,29.57,11,4,13,0.00
2013-3-25,41.9,30.8,20.8,17.1,11.0,5.5,61,45,23,29.86,29.72,21,6,21,0.00
2013-3-26,41.5,30.7,22.1,19.6,14.4,11.4,64,51,33,29.98,29.85,11,5,11,0.00
2013-3-27,50.7,32.5,16.5,15.7,9.7,1.1,71,43,14,30.03,29.89,7,2,7,0.00
2013-3-28,53.2,34.1,17.2,21.0,13.1,6.2,72,46,15,30.03,29.85,6,2,7,0.00
2013-3-29,55.4,40.0,29.5,34.4,26.5,19.3,77,59,38,29.93,29.69,9,3,9,0.00
2013-3-30,53.4,42.8,33.6,40.7,34.6,27.4,91,74,55,29.71,29.48,11,5,13,0.35
2013-3-31,39.6,33.0,22.1,28.1,18.4,-2.6,83,58,18,29.76,29.47,22,9,27,0.00
2013-4-1,34.9,24.5,16.2,12.2,7.2,2.4,61,48,29,29.97,29.77,17,8,17,0.00
2013-4-2,37.8,26.4,14.0,14.2,6.2,-4.7,70,46,17,30.04,29.91,13,4,17,0.00
2013-4-3,46.9,34.1,17.8,29.2,16.5,3.6,73,51,19,30.10,29.67,16,5,18,0.00
2013-4-4,49.8,42.0,30.4,30.8,24.0,13.5,75,50,28,29.82,29.64,14,7,19,0.00
2013-4-5,43.2,32.4,23.9,29.3,18.9,8.1,84,60,24,29.95,29.55,12,5,16,0.05
2013-4-6,51.3,40.4,34.9,38.9,31.1,25.9,84,70,47,29.55,29.15,17,7,22,0.17
2013-4-7,50.5,40.5,34.9,36.7,30.1,25.1,87,67,48,29.61,29.40,8,4,11,0.14
2013-4-8,44.8,40.3,37.8,39.7,36.8,34.1,93,87,79,29.69,29.34,9,4,11,0.22
2013-4-9,44.4,37.9,33.3,34.3,26.0,17.2,83,63,44,29.81,29.64,15,7,17,0.01
2013-4-10,39.7,34.8,30.2,26.3,20.9,16.7,82,57,45,29.84,29.54,14,7,14,0.00
2013-4-11,35.6,32.2,27.9,28.8,24.5,17.3,87,74,49,29.57,29.35,14,6,15,0.20
2013-4-12,41.9,30.9,26.2,26.9,23.0,19.3,84,73,49,29.51,29.34,11,2,14,0.15
2013-4-13,37.6,31.4,26.2,24.4,20.4,15.4,84,64,49,29.64,29.50,11,3,13,0.07
2013-4-14,35.2,31.1,27.0,31.8,23.7,15.7,87,74,58,29.63,29.18,15,4,18,0.41
2013-4-15,37.2,34.0,32.0,31.9,24.6,21.6,87,68,60,29.34,29.19,14,7,16,0.04
2013-4-25,51.1,46.6,44.6,26.8,24.7,20.7,48,42,30,29.73,29.70,6,3,6,0.00
2013-4-26,74.8,58.5,45.5,41.8,34.0,26.0,64,42,21,29.70,29.57,12,5,12,0.00
2013-4-27,77.0,60.4,37.4,46.1,29.8,16.2,81,41,10,29.73,29.41,8,3,8,0.00
2013-4-28,81.5,64.2,50.4,53.6,46.6,41.9,89,57,26,29.43,29.12,13,6,13,0.04
2013-4-29,75.7,62.1,44.8,57.2,46.3,26.8,86,60,17,29.43,29.04,8,3,8,0.01
2013-4-30,70.7,63.8,54.5,59.9,43.3,10.0,82,53,10,29.51,28.94,18,8,26,0.00
2013-5-1,54.3,41.5,33.1,37.6,30.7,25.6,99,67,46,30.10,29.52,16,5,16,0.15
2013-5-2,47.3,39.6,34.3,27.6,24.8,21.5,69,56,39,30.19,30.02,19,8,21,0.00
2013-5-3,39.2,34.4,30.4,34.6,27.5,21.5,93,76,58,30.04,29.81,14,6,15,0.07
2013-5-4,46.0,38.2,32.2,41.3,35.8,30.4,99,91,81,29.83,29.76,11,4,11,0.09
2013-5-5,71.2,50.7,37.4,48.2,41.8,36.2,98,75,41,29.84,29.60,9,3,9,0.00
2013-5-6,78.8,60.7,41.7,50.9,44.9,40.3,98,61,28,29.75,29.52,8,2,8,0.00
2013-5-7,82.9,66.0,47.1,54.9,45.1,34.0,97,54,18,29.67,29.42,8,2,8,0.00
2013-5-8,79.5,65.0,57.2,56.8,50.9,44.6,91,63,31,29.58,29.47,13,3,14,0.05
2013-5-9,58.5,52.6,42.3,55.2,46.5,26.9,92,80,51,29.73,29.53,13,5,14,0.00
2013-5-10,70.9,52.4,34.0,36.4,21.7,6.3,71,38,10,29.79,29.41,11,4,11,0.00
2013-5-11,56.7,46.4,36.3,39.6,23.0,10.5,67,43,19,29.79,29.43,27,11,28,0.00
2013-5-12,60.4,46.8,29.5,23.9,12.5,0.7,69,32,10,29.89,29.65,17,5,20,0.00
2013-5-13,72.9,59.7,43.5,47.6,24.9,3.1,59,29,13,29.73,29.17,16,4,19,0.02
2013-5-14,100.0,73.3,49.3,54.2,42.6,16.9,86,42,10,29.27,28.86,24,6,29,0.00
2013-5-15,86.4,68.3,50.2,48.4,43.7,27.1,81,46,13,29.49,29.15,14,4,20,0.00
2013-5-16,85.6,70.2,50.4,48.1,38.1,11.4,86,38,11,29.49,29.29,11,4,11,0.00
2013-5-17,67.5,59.0,55.8,56.3,49.3,10.9,98,77,11,29.54,29.39,9,4,9,0.18
2013-5-18,83.5,67.0,54.5,66.3,59.9,53.7,99,81,52,29.55,29.28,14,4,14,0.59
2013-5-19,82.8,69.3,62.2,68.7,64.0,61.7,99,85,54,29.32,29.05,11,4,24,1.18
2013-5-20,75.2,65.9,59.7,63.7,60.3,56.8,99,83,57,29.11,29.04,11,3,13,0.37
2013-5-21,60.4,51.8,45.3,60.2,51.4,44.5,99,98,95,29.31,29.06,7,3,9,0.25
2013-5-22,52.9,48.1,43.3,49.6,46.0,42.8,99,93,73,29.60,29.30,11,4,13,0.08
2013-5-23,68.4,53.6,42.6,43.0,34.0,18.2,92,54,15,29.90,29.60,9,3,13,0.00
2013-5-24,70.7,55.2,37.0,52.7,38.3,29.5,98,57,25,30.01,29.71,10,2,13,0.20
2013-5-25,66.2,57.4,52.3,52.5,49.1,45.6,98,75,51,29.82,29.77,12,4,14,0.05
2013-5-26,59.9,56.1,52.3,47.7,42.8,36.2,70,61,43,29.81,29.62,12,4,12,0.00
2013-5-27,62.1,57.7,54.5,55.3,51.2,47.3,99,79,67,29.64,29.42,8,3,8,0.00
2013-5-28,61.3,56.8,53.2,58.4,54.9,51.9,99,94,86,29.42,29.30,4,1,4,0.06
2013-5-29,79.0,66.9,54.3,69.9,61.7,53.5,99,85,56,29.43,29.13,8,2,9,0.01
2013-5-30,77.7,69.0,63.5,66.7,63.6,61.2,99,84,61,29.19,29.01,14,4,16,0.14
2013-5-31,80.4,68.1,60.6,62.8,56.3,50.7,98,69,40,29.09,28.98,14,3,17,0.06
2013-6-1,76.6,59.3,51.3,60.7,52.4,43.1,98,79,48,29.52,29.05,15,3,15,0.13
2013-6-2,72.0,57.2,45.5,46.6,41.3,34.5,91,59,26,29.68,29.51,11,3,11,0.00
2013-6-3,73.4,59.5,43.0,53.2,44.0,36.2,99,61,28,29.65,29.50,4,1,5,0.00
2013-6-4,64.2,58.0,52.7,57.6,50.2,42.6,98,76,58,29.65,29.54,7,2,12,0.21
2013-6-5,65.1,56.3,51.6,59.7,54.4,50.7,99,93,79,29.60,29.50,5,2,9,0.06
2013-6-6,57.6,52.5,48.9,53.8,50.6,48.7,99,94,83,29.64,29.55,8,2,8,0.01
2013-6-7,66.9,57.3,51.3,54.5,51.5,49.3,96,82,62,29.66,29.44,5,1,5,0.00
2013-6-8,73.4,63.5,52.2,59.2,53.7,50.9,97,73,48,29.50,29.42,8,1,10,0.00
2013-6-9,64.6,59.5,55.9,61.3,57.4,54.2,99,93,74,29.45,29.35,5,2,7,0.51
2013-6-10,81.7,66.4,59.4,63.6,60.6,58.2,99,84,49,29.44,29.35,6,1,8,0.00
2013-6-11,79.9,67.2,55.2,69.7,63.4,54.4,99,88,63,29.46,29.32,5,1,6,0.00
2013-6-12,79.9,66.4,57.7,66.5,58.1,51.0,99,76,48,29.46,29.32,10,2,12,0.58
2013-6-13,86.0,69.2,55.6,58.2,53.5,50.0,83,60,35,29.65,29.47,8,2,12,0.00
2013-6-14,80.6,69.6,55.6,62.4,57.3,50.8,87,66,50,29.64,29.32,9,2,12,0.00
2013-6-15,88.3,71.4,59.7,69.9,64.7,56.9,96,81,46,29.42,29.33,9,1,12,0.24
2013-6-16,89.8,70.9,55.4,58.1,52.3,41.6,98,59,19,29.48,29.28,11,2,14,0.00
2013-6-17,86.0,71.0,58.5,60.8,56.4,50.3,93,63,33,29.52,29.36,14,2,14,0.00
2013-6-18,83.5,66.5,50.5,60.8,53.1,44.0,82,64,40,29.66,29.48,6,1,6,0.00
2013-6-19,89.6,73.0,58.1,64.1,58.7,54.4,92,64,33,29.59,29.35,8,1,9,0.00
2013-6-20,91.0,79.5,68.7,67.9,63.8,59.9,79,60,39,29.50,29.29,13,2,13,0.00
2013-6-21,84.9,72.5,63.3,70.1,66.2,61.7,99,83,56,29.50,29.17,20,3,30,1.39
2013-6-22,89.8,72.8,64.8,71.4,67.1,63.7,99,84,49,29.50,29.27,9,1,11,0.40
2013-6-23,88.2,75.0,65.3,71.2,67.2,63.7,99,79,46,29.35,29.18,9,2,11,1.20
2013-6-24,88.3,73.4,62.6,71.9,66.6,61.8,99,81,48,29.44,29.26,7,1,9,0.00
2013-6-25,91.4,77.1,63.5,73.1,67.8,62.7,98,76,48,29.33,29.14,5,1,9,0.00
2013-6-26,92.1,79.7,71.1,76.2,70.0,63.7,99,75,45,29.26,29.12,13,2,15,0.21
2013-6-27,87.8,76.8,65.7,67.5,61.6,52.8,97,64,33,29.31,29.21,17,4,21,0.00
2013-6-28,79.5,70.9,63.5,64.4,60.3,56.1,94,70,51,29.29,29.23,18,6,19,0.06
2013-6-29,81.1,69.1,59.7,64.3,58.7,51.8,98,73,42,29.49,29.25,9,3,12,0.35
2013-6-30,88.2,71.0,54.9,58.5,53.7,49.7,93,59,29,29.66,29.49,9,2,10,0.00
2013-7-1,89.1,73.7,56.3,64.6,56.8,50.6,99,61,29,29.73,29.57,9,1,9,0.00
2013-7-2,89.6,73.2,56.1,57.5,53.5,46.7,91,56,27,29.71,29.49,7,1,8,0.00
2013-7-3,94.6,73.8,55.0,64.7,54.3,45.0,99,59,21,29.61,29.38,2,0,3,0.00
2013-7-4,91.9,76.6,61.0,64.1,57.9,52.7,88,57,28,29.47,29.26,8,2,11,0.00
2013-7-5,90.1,80.2,69.1,65.6,61.4,56.4,71,54,38,29.37,29.21,14,4,14,0.00
2013-7-6,88.2,79.1,72.5,72.2,65.3,61.7,71,63,51,29.35,29.25,8,2,9,0.00
2013-7-7,96.1,81.9,68.2,73.8,68.7,64.5,97,66,43,29.35,29.21,9,2,9,0.00
2013-7-8,93.7,73.0,61.7,71.7,66.6,61.1,99,83,45,29.51,29.34,6,2,7,0.00
2013-7-9,88.5,76.8,67.5,74.0,69.2,64.2,99,79,52,29.39,29.18,11,3,23,0.58
2013-7-10,85.5,71.6,59.7,64.4,57.5,52.0,91,64,38,29.57,29.37,13,4,16,0.00
2013-7-11,87.8,72.8,56.3,67.1,58.6,55.4,99,66,35,29.63,29.40,8,1,8,0.00
2013-7-12,90.5,78.3,69.3,65.0,60.4,56.5,68,55,40,29.50,29.28,11,4,15,0.00
2013-7-13,77.4,73.3,66.7,70.4,66.6,57.0,99,81,58,29.51,29.33,11,4,13,1.71
2013-7-14,89.2,76.2,69.4,70.7,65.6,59.9,87,71,46,29.66,29.51,6,2,7,0.02
2013-7-15,91.2,78.5,66.0,70.6,67.3,64.4,98,72,43,29.72,29.54,5,1,10,0.00
2013-7-16,95.2,83.9,73.4,74.0,71.8,68.8,93,70,44,29.65,29.51,7,1,7,0.00
2013-7-17,97.2,83.4,69.8,73.9,70.8,67.7,94,69,41,29.70,29.49,8,1,8,0.00
2013-7-18,95.2,83.7,75.0,74.0,71.9,69.1,91,69,43,29.50,29.15,9,2,9,0.00
2013-7-19,86.5,78.5,66.7,71.7,64.8,59.3,93,65,42,29.33,29.14,13,4,17,0.02
2013-7-20,84.6,71.4,61.9,64.5,60.3,55.8,99,71,41,29.42,29.30,5,1,6,0.01
2013-7-21,88.2,71.1,58.5,69.7,61.3,49.5,89,72,47,29.50,29.24,4,1,4,0.02
2013-7-22,88.5,75.5,64.9,73.1,64.7,54.9,94,71,43,29.32,29.09,14,4,17,0.00
2013-7-23,81.7,67.6,56.5,57.1,54.1,51.4,94,65,37,29.55,29.32,11,2,11,0.00
2013-7-24,85.6,68.4,55.8,61.4,57.1,53.2,93,70,41,29.62,29.44,4,0,6,0.00
2013-7-25,84.6,71.7,59.5,66.7,62.2,58.1,96,74,45,29.48,29.34,12,1,14,0.00
2013-7-26,69.8,63.0,55.6,63.6,54.9,47.4,96,75,54,29.65,29.36,15,5,17,0.04
2013-7-27,64.0,56.5,49.5,51.9,48.4,45.6,99,75,56,29.67,29.46,17,4,17,0.02
2013-7-28,77.7,61.6,51.8,54.1,49.8,45.5,94,67,42,29.57,29.42,10,3,11,0.00
2013-7-29,83.1,65.4,49.6,61.4,54.9,49.4,99,74,36,29.68,29.47,5,1,8,0.11
2013-7-30,74.5,65.7,61.0,66.3,62.9,60.4,99,91,72,29.62,29.54,4,0,4,0.14
2013-7-31,82.8,68.7,58.3,67.3,58.8,49.2,99,75,36,29.61,29.42,13,2,15,0.00
2013-8-1,86.5,68.5,51.4,62.7,56.1,51.2,99,69,36,29.60,29.32,10,1,10,0.00
2013-8-2,82.8,68.2,56.3,60.6,54.2,48.2,92,64,34,29.56,29.34,9,2,11,0.00
2013-8-3,80.8,65.9,50.7,60.4,51.7,46.0,99,65,31,29.73,29.55,8,2,10,0.00
2013-8-4,81.3,65.1,50.2,58.4,53.4,48.5,99,69,37,29.78,29.50,4,1,4,0.00
2013-8-5,87.3,70.3,60.3,68.3,62.8,54.9,99,79,48,29.55,29.22,11,2,11,0.47
2013-8-6,88.0,67.7,54.7,69.7,61.1,53.9,99,82,49,29.40,29.12,27,1,30,0.14
2013-8-7,79.7,66.3,55.4,60.4,54.5,46.8,99,71,32,29.53,29.28,9,3,11,0.01
2013-8-8,81.0,65.6,53.1,63.8,57.3,52.1,99,78,44,29.61,29.45,4,1,8,0.00
2013-8-9,76.1,65.7,55.8,61.3,55.0,48.9,99,72,41,29.62,29.48,11,3,13,0.00
2013-8-10,81.3,66.4,54.3,59.6,54.4,50.5,96,68,35,29.73,29.52,5,1,7,0.00
2013-8-11,88.3,70.9,59.2,67.0,61.1,55.8,95,74,41,29.60,29.44,4,0,4,0.04
2013-8-12,82.2,69.0,58.8,62.5,56.7,50.5,99,69,35,29.58,29.44,11,3,12,0.00
2013-8-13,79.3,64.5,52.7,58.7,50.6,42.9,99,67,29,29.74,29.53,8,1,11,0.00
2013-8-14,82.6,63.4,48.6,59.2,52.7,48.3,99,73,34,29.78,29.56,6,1,11,0.00
2013-8-15,85.5,65.9,52.5,63.1,56.4,51.1,98,75,39,29.68,29.52,4,1,8,0.00
2013-8-16,85.3,69.0,55.8,63.2,57.2,51.3,99,71,35,29.73,29.55,4,1,8,0.00
2013-8-17,84.6,69.1,55.6,60.2,57.1,54.9,99,70,40,29.73,29.52,8,2,11,0.00
2013-8-18,85.1,70.7,57.9,61.1,57.9,54.7,92,67,40,29.68,29.47,14,2,14,0.00
2013-8-19,89.8,76.3,66.7,70.5,65.5,59.2,82,70,49,29.50,29.29,8,2,8,0.00
2013-8-20,92.3,79.2,69.8,74.2,70.4,66.4,94,76,53,29.40,29.25,10,2,11,0.00
2013-8-21,95.5,78.6,68.9,77.6,70.7,60.1,98,78,50,29.44,29.27,6,1,9,0.00
2013-8-22,90.5,74.5,64.4,60.9,52.5,43.6,81,51,20,29.67,29.44,8,2,9,0.00
2013-8-23,90.1,73.2,57.7,68.4,59.4,50.9,87,64,37,29.69,29.39,6,1,7,0.00
2013-8-24,91.0,79.7,70.2,73.4,69.6,66.1,88,73,49,29.55,29.32,12,4,18,0.00
2013-8-25,97.5,85.4,77.5,75.7,73.5,71.2,82,69,47,29.45,29.27,8,3,14,0.00
2013-8-26,97.2,85.5,76.1,77.8,75.4,73.3,94,74,49,29.43,29.18,6,2,9,0.00
2013-8-27,96.8,82.8,72.7,78.4,75.1,70.9,96,79,52,29.34,29.19,8,1,8,0.00
2013-8-28,95.9,78.0,66.6,75.9,69.7,66.0,99,79,41,29.48,29.33,3,0,4,0.00
2013-8-29,95.9,81.3,71.4,77.6,72.8,67.4,99,77,41,29.45,29.24,5,1,8,0.00
2013-8-30,89.8,76.3,68.4,72.1,66.9,62.7,93,74,43,29.47,29.25,9,2,11,0.00
2013-8-31,92.1,74.0,59.9,71.1,65.0,59.6,99,77,44,29.37,29.09,11,2,15,0.21
2013-9-1,72.9,66.8,58.6,64.3,59.7,53.2,97,79,64,29.49,29.17,13,4,14,0.00
2013-9-2,71.8,58.0,-8.3,54.9,52.5,-8.4,99,83,51,29.63,29.49,7,2,8,0.00
2013-9-3,84.9,62.6,46.9,62.2,55.2,46.7,99,80,42,29.66,29.45,7,1,7,0.00
2013-9-4,91.4,70.7,55.4,67.6,60.5,55.1,99,74,40,29.63,29.48,8,1,8,0.00
2013-9-5,88.3,71.9,59.2,66.9,60.0,53.4,87,68,40,29.79,29.55,4,1,6,0.00
2013-9-6,93.2,78.9,69.4,70.9,67.9,63.6,97,72,41,29.57,29.24,8,2,11,0.00
2013-9-7,95.5,79.5,67.3,71.7,67.5,59.2,99,70,40,29.45,29.28,7,2,9,0.00
2013-9-8,77.4,67.3,63.1,64.2,59.0,52.5,85,75,60,29.60,29.38,4,2,6,0.00
2013-9-9,95.4,76.6,66.2,75.7,70.5,60.9,99,83,49,29.39,29.01,7,1,11,0.05
2013-9-10,87.4,72.7,63.3,71.6,65.3,57.9,97,80,46,29.46,29.19,6,1,11,0.01
2013-9-11,86.2,71.4,59.4,67.0,56.7,47.4,99,66,27,29.54,29.41,14,3,15,0.00
2013-9-12,76.1,63.2,52.5,57.2,49.1,41.5,97,63,32,29.74,29.53,11,4,14,0.00
2013-9-13,76.8,55.7,42.1,49.5,44.2,39.5,99,72,29,29.85,29.55,5,1,5,0.00
2013-9-14,76.5,58.4,48.0,59.8,51.2,45.6,99,80,40,29.62,29.42,5,1,8,0.48
2013-9-15,70.3,58.2,49.6,58.0,53.7,4.1,99,87,12,29.87,29.43,8,2,8,0.18
2013-9-16,49.6,49.6,49.6,47.4,47.4,47.4,92,92,92,30.01,29.79,5,1,10,0.12
2013-9-17,80.6,66.7,56.5,62.9,58.8,53.5,99,79,46,30.87,30.71,10,2,10,0.00
2013-9-18,75.6,68.4,55.0,68.5,62.1,49.2,96,83,41,30.97,29.90,11,2,11,0.00
2013-9-19,79.0,69.1,61.5,73.3,66.3,55.1,99,91,66,30.03,29.85,22,2,22,0.43
2013-9-20,65.3,57.1,48.2,55.9,51.9,46.4,99,84,54,30.20,30.02,12,4,16,0.04
2013-9-21,67.1,52.1,44.1,49.0,45.7,43.5,99,81,46,30.34,30.14,8,2,11,0.01
2013-9-22,75.0,58.9,44.1,56.4,50.4,43.5,99,76,49,30.27,30.05,7,2,10,0.00
2013-9-23,76.5,63.8,53.8,54.4,51.8,48.7,84,67,43,30.22,30.03,10,3,11,0.00
2013-9-24,79.5,63.3,52.0,55.7,52.0,48.9,91,70,38,30.24,30.10,6,1,6,0.00
2013-9-25,77.9,62.8,50.4,58.1,52.2,49.8,99,72,41,30.24,30.05,9,1,14,0.00
2013-9-26,82.6,68.7,56.3,61.4,56.2,51.2,85,67,44,30.19,29.99,14,4,16,0.00
2013-9-27,84.7,73.0,66.0,65.3,61.7,60.1,88,69,45,30.14,30.00,14,4,17,0.04
2013-9-28,73.8,60.4,45.3,64.3,54.7,44.5,99,82,64,30.20,29.85,13,3,18,0.28
2013-9-29,78.6,60.2,43.2,50.4,45.2,41.1,97,64,27,30.25,29.99,11,2,13,0.00
2013-9-30,82.0,68.2,59.2,53.9,49.8,44.7,66,53,33,30.01,29.75,12,4,17,0.00
2013-10-1,77.7,65.1,48.0,53.2,42.4,17.6,73,49,11,30.23,29.79,16,3,16,0.00
2013-10-2,77.0,58.0,41.2,54.0,42.3,23.5,97,65,14,30.33,30.02,9,2,10,0.46
2013-10-3,58.3,55.4,54.1,58.0,54.6,53.3,99,97,95,30.20,30.08,8,2,11,0.48
2013-10-4,58.6,55.7,53.2,56.0,53.8,52.2,99,93,85,30.26,30.12,10,4,10,0.17
2013-10-5,60.4,53.7,41.0,58.2,51.8,40.7,99,93,78,30.11,29.99,8,2,8,0.07
2013-10-6,52.9,46.3,39.7,51.2,45.4,39.5,99,97,86,30.16,30.00,11,2,11,0.06
2013-10-7,70.3,52.8,40.8,48.6,42.6,36.2,99,74,30,30.27,30.15,8,2,11,0.01
2013-10-8,77.9,62.8,48.0,48.9,45.0,41.9,83,56,30,30.25,30.01,17,4,17,0.00
2013-10-9,78.4,65.8,56.7,53.4,49.7,47.4,75,57,39,30.29,30.15,11,3,13,0.00
2013-10-10,79.9,64.3,50.7,55.7,49.8,46.0,86,62,39,30.28,30.08,12,3,12,0.00
2013-10-11,74.8,65.8,55.9,61.6,54.3,50.9,93,68,50,30.12,29.82,17,6,22,0.18
2013-10-12,58.8,49.1,40.1,52.8,43.8,39.8,99,83,59,30.48,29.92,11,2,14,0.04
2013-10-13,64.8,46.9,33.3,46.6,36.4,29.2,99,73,28,30.74,30.48,9,1,10,0.00
2013-10-14,53.2,46.5,37.8,47.2,40.5,36.1,99,81,57,30.71,30.27,8,2,11,0.43
2013-10-15,52.7,49.0,44.2,52.2,48.7,43.7,99,99,97,30.27,29.98,13,4,14,0.81
2013-10-16,56.7,45.7,36.5,44.0,39.3,33.3,98,80,47,30.28,30.15,11,3,100,0.01
2013-10-17,55.2,45.2,36.7,46.5,40.5,33.8,99,85,58,30.19,30.08,10,2,14,0.46
2013-10-18,56.5,43.6,34.3,41.5,34.6,27.0,99,75,34,30.33,30.16,11,3,13,0.09
2013-10-19,47.3,38.0,30.4,42.6,35.1,29.1,99,90,76,30.16,30.03,10,1,11,0.11
2013-10-20,42.3,34.9,29.1,39.8,33.5,28.5,99,95,79,30.24,29.98,14,2,16,0.19
2013-10-21,40.1,33.1,25.5,30.3,21.4,18.2,82,62,48,30.33,30.24,21,5,21,0.00
2013-10-22,41.2,32.7,24.8,31.8,27.0,20.2,93,80,61,30.38,30.30,8,2,10,0.01
2013-10-23,38.7,32.9,30.0,31.2,23.7,16.7,92,70,49,30.46,30.35,13,3,16,0.02
2013-10-24,42.6,36.7,31.6,31.4,25.7,18.9,80,65,50,30.64,30.46,11,4,15,0.00
2013-10-25,56.7,42.9,25.5,41.5,32.5,21.7,90,68,47,30.66,30.10,7,2,10,0.00
2013-10-26,49.1,41.6,32.2,40.5,28.4,24.2,73,60,47,30.44,30.12,16,6,19,0.00
2013-10-27,61.2,42.3,28.6,33.5,28.5,23.6,84,61,32,30.47,30.13,11,2,13,0.00
2013-10-28,45.3,35.6,28.9,28.7,21.6,11.3,79,59,27,30.79,30.48,10,4,11,0.00
2013-10-29,38.1,34.5,29.1,34.0,27.2,23.0,91,74,65,30.76,30.42,8,3,10,0.05
2013-10-30,47.3,42.8,36.3,47.0,42.2,34.0,99,98,91,30.43,29.97,5,2,7,0.05
2013-10-31,47.1,41.7,39.2,46.9,40.8,37.2,99,97,90,29.98,29.72,11,4,12,0.02
2013-11-1,51.8,42.2,36.0,39.0,35.2,29.2,97,78,51,30.18,29.74,12,4,14,0.00
2013-11-2,50.7,39.5,30.7,36.3,29.6,26.1,89,69,42,30.41,30.17,10,3,12,0.00
2013-11-3,56.5,44.8,34.5,34.6,30.8,27.3,80,60,38,30.44,30.18,17,7,24,0.00
2013-11-4,48.0,43.0,31.3,45.1,35.4,29.0,94,75,56,30.46,30.15,14,4,15,0.12
2013-11-5,44.4,32.4,26.6,34.5,28.6,23.0,92,86,45,30.59,30.36,5,0,5,0.00
2013-11-6,40.5,31.5,26.6,30.1,25.3,20.1,93,78,58,30.50,30.38,7,0,8,0.13
2013-11-7,41.9,27.7,19.8,30.5,22.1,16.0,88,79,62,30.60,30.50,8,1,10,0.14
2013-11-8,43.2,33.6,22.1,36.5,25.4,18.3,90,73,51,30.53,29.92,15,4,17,0.28
2013-11-9,42.6,39.5,35.2,37.5,30.7,23.5,89,71,57,30.56,29.96,27,10,27,0.00
2013-11-10,45.0,36.6,27.5,28.4,25.9,19.4,77,65,49,30.69,30.45,15,3,19,0.00
2013-11-11,35.8,23.0,13.5,27.7,5.9,-2.2,72,48,29,31.09,30.48,17,8,21,0.00
2013-11-12,30.9,19.6,9.7,10.2,2.6,-6.0,64,49,22,31.17,30.79,9,2,10,0.00
2013-11-13,51.8,37.4,22.5,31.7,21.4,8.0,60,53,39,30.78,30.16,10,4,12,0.00
2013-11-14,55.2,42.4,32.4,36.2,31.5,26.8,84,66,48,30.20,30.08,8,2,8,0.00
2013-11-15,57.2,39.1,29.8,37.9,30.7,26.5,88,74,44,30.21,29.94,9,2,12,0.00
2013-11-16,47.8,44.2,41.0,46.8,40.5,32.4,98,87,62,29.94,29.58,14,4,14,0.08
2013-11-17,43.5,38.7,30.7,41.6,33.7,21.5,98,83,67,30.18,29.63,24,9,26,0.00
2013-11-18,33.1,28.5,27.1,21.1,16.4,14.1,70,60,50,30.55,30.18,26,13,26,0.00
2013-11-19,46.9,39.6,19.8,27.9,25.0,13.9,79,56,40,30.55,30.20,17,8,20,0.00
2013-11-20,45.1,42.0,37.0,32.4,27.4,22.1,82,57,42,30.36,30.20,13,6,16,0.00
2013-11-21,37.0,29.7,22.1,32.3,20.8,7.6,87,70,51,30.89,30.35,17,6,18,0.00
2013-11-22,35.1,21.5,11.8,9.8,2.9,-8.6,65,49,15,30.95,30.81,13,5,15,0.00
2013-11-23,17.4,10.6,3.7,-4.8,-11.0,-18.9,57,39,19,31.14,31.08,14,4,16,0.00
2013-11-24,31.3,19.3,2.8,10.9,2.2,-7.6,62,48,32,31.08,30.32,15,6,17,0.00
2013-11-25,37.8,32.3,27.7,25.1,19.8,10.1,76,60,45,30.38,30.23,17,7,18,0.00
2013-11-26,21.6,15.4,10.2,-1.9,-3.6,-8.2,55,43,29,30.78,30.63,17,5,17,0.00
2013-11-27,10.0,7.0,2.8,-2.9,-3.9,-6.1,65,60,51,30.79,30.76,4,0,4,0.00
2013-11-28,26.2,20.7,8.1,8.2,4.1,-2.6,62,48,35,30.90,30.43,14,4,14,0.00
2013-11-29,31.6,26.8,5.9,16.9,12.3,-4.3,69,54,44,30.91,30.50,11,4,12,0.00
2013-11-30,39.9,29.8,22.5,23.7,18.6,14.3,76,63,51,30.53,30.36,6,3,6,0.00
2013-12-1,35.1,29.4,17.2,21.4,17.5,10.4,74,61,54,30.56,30.29,4,2,4,0.00
2013-12-2,36.9,34.0,30.0,31.3,25.5,19.3,90,72,54,30.30,29.95,10,4,11,0.07
2013-12-3,34.0,33.3,30.6,31.4,30.4,27.4,91,89,86,30.15,29.96,7,2,9,0.02
2013-12-4,30.6,27.2,18.9,27.4,23.0,10.8,88,84,70,30.14,29.84,0,0,0,0.00
2013-12-5,1.4,-1.3,-1.8,-12.2,-15.4,-15.8,52,50,48,30.74,30.62,9,4,9,0.00
2013-12-6,3.6,-2.8,-9.6,-14.6,-17.7,-25.6,50,48,40,31.04,30.74,10,5,11,0.00
2013-12-7,1.6,-9.1,-18.0,-19.3,-26.0,-33.8,51,43,24,31.13,30.97,4,1,4,0.00
2013-12-8,10.6,5.9,-10.3,0.5,-4.4,-23.9,65,61,50,30.98,30.45,7,1,7,0.00
2013-12-9,7.3,0.3,-5.8,-1.9,-10.8,-19.8,66,59,41,30.51,30.41,15,3,15,0.00
2013-12-10,9.3,3.6,-1.1,-3.8,-10.4,-16.1,64,52,34,30.70,30.19,11,4,11,0.00
2013-12-11,2.7,-5.3,-12.3,-16.5,-23.3,-28.9,50,41,28,30.97,30.72,14,3,14,0.00
2013-12-12,20.3,9.3,-0.8,2.7,-4.9,-16.3,64,52,39,30.72,30.53,5,2,5,0.00
2013-12-13,14.7,10.0,7.2,4.4,-2.7,-5.1,64,56,51,30.72,30.55,10,5,11,0.00
2013-12-14,7.7,7.5,7.3,-2.5,-2.8,-3.2,62,62,61,30.71,30.67,5,3,9,0.00
2013-12-15,2.3,-1.6,-3.8,-17.2,-20.2,-26.0,50,40,27,30.57,30.46,10,4,10,0.00
2013-12-16,20.8,8.0,-1.8,15.4,-4.4,-20.3,79,57,39,30.52,30.30,6,2,6,0.00
2013-12-17,31.8,21.0,3.2,24.4,9.2,-6.9,77,60,46,30.53,30.27,18,8,18,0.00
2013-12-18,36.1,23.9,3.2,19.8,14.4,-6.6,75,67,46,30.49,30.02,8,2,11,0.00
2013-12-19,24.3,17.1,14.0,15.3,5.2,-0.8,69,59,48,30.51,30.19,12,5,12,0.00
2013-12-20,18.0,13.8,8.6,5.4,3.6,-1.1,70,63,52,30.43,30.27,6,2,6,0.00
2013-12-21,22.5,17.9,13.3,9.1,6.7,4.0,67,61,54,30.42,30.27,8,2,11,0.00
2013-12-22,18.9,12.5,3.7,6.7,2.3,-6.3,67,63,56,30.65,30.37,12,6,14,0.00
2013-12-23,3.7,-0.3,-3.1,-6.3,-12.5,-15.8,62,55,52,30.77,30.65,14,8,14,0.00
2013-12-24,6.6,-5.4,-19.1,-18.0,-24.3,-34.8,48,39,23,30.90,30.66,7,3,9,0.00
2013-12-25,25.0,15.0,8.1,14.9,4.4,-2.6,70,63,49,30.55,30.45,14,3,14,0.00
2013-12-26,24.1,17.6,10.4,15.0,8.4,2.3,73,67,60,30.57,30.48,4,0,4,0.00
2013-12-27,41.7,31.7,8.4,28.3,23.2,-0.3,84,71,53,30.56,30.27,8,2,9,0.08
2013-12-28,47.1,30.3,15.1,31.5,22.5,3.8,87,74,45,30.40,30.04,19,4,26,0.02
2013-12-29,14.9,-3.8,-19.1,3.6,-23.5,-37.1,61,38,23,30.74,30.40,21,7,21,0.00
2013-12-30,-8.5,-16.6,-19.3,-23.5,-32.3,-35.5,47,43,40,30.72,30.64,0,0,0,0.00
2013-12-31,-2.7,-9.7,-14.6,-19.0,-24.9,-29.5,52,46,38,30.82,30.61,6,2,6,0.00
2014-1-1,0.1,-3.1,-11.6,-19.7,-21.5,-28.7,44,40,35,30.90,30.80,6,2,7,0.00
2014-1-2,3.0,-8.5,-15.0,-21.0,-30.2,-34.3,47,33,19,30.91,30.80,7,1,7,0.00